Weather History for Las Vegas, NM

Change the Weather History Date:

Saturday, October 8, 2011

  Actual Average Record
Temperature  
Mean Temperature 44 °F -  
Max Temperature 55 °F 67 °F 85 °F (1979)
Min Temperature 34 °F 38 °F 18 °F (1970)
Degree Days  
Heating Degree Days 20    
Moisture  
Dew Point 26 °F    
Average Humidity 52    
Maximum Humidity 82    
Minimum Humidity 26    
Precipitation  
Precipitation 0.01 in - - ()
Sea Level Pressure  
Sea Level Pressure 29.86 in    
Wind  
Wind Speed 12 mph (SSE)    
Max Wind Speed 33 mph    
Max Gust Speed 44 mph    
Visibility 10 miles    
Events      
Averages and records for this station are not official NWS values.
T = Trace of Precipitation, MM = Missing Value Source: NWS Daily Summary

Daily Weather History Graph

Daily Weather History Graph

Search for Another Location

Airport:

Trip Planner

Search our weather history database for the weather conditions in past years. The results will help you decide how hot, cold, wet, or windy it might be!

Date:

Astronomy

Oct. 08, 2011 Rise Set
Actual Time 7:00 AM MDT 6:34 PM MDT
Civil Twilight 6:35 AM MDT 7:00 PM MDT
Nautical Twilight 6:05 AM MDT 7:29 PM MDT
Astronomical Twilight 5:36 AM MDT 7:59 PM MDT
Moon 4:42 PM MDT (10/8) 3:56 AM MDT (10/8)
Length of Visible Light 12h 24m
Length of Day
11h 33m
Waxing Gibbous, 90% of the Moon is Illuminated
Oct 8
Waxing Gibbous
Oct 11
Full
Oct 19
Last Quarter
Oct 26
New
Nov 2
First Quarter

Hourly Weather History & Observations

Time (MDT) Temp. Windchill Dew Point Humidity Pressure Visibility Wind Dir Wind Speed Gust Speed Precip Events Conditions
12:53 AM 39.0 °F 32.3 °F 34.0 °F 82% 29.73 in 10.0 mi SW 10.4 mph - N/A   Mostly Cloudy
1:53 AM 37.0 °F 26.4 °F 32.0 °F 82% 29.73 in 10.0 mi SW 20.7 mph 32.2 mph N/A   Clear
2:53 AM 36.0 °F 28.0 °F 30.0 °F 79% 29.77 in 10.0 mi SW 11.5 mph - 0.01 in   Clear
3:53 AM 34.0 °F 25.0 °F 28.9 °F 82% 29.80 in 10.0 mi SW 12.7 mph - N/A   Clear
4:53 AM 36.0 °F 24.7 °F 25.0 °F 64% 29.77 in 10.0 mi WSW 21.9 mph 27.6 mph N/A   Clear
5:53 AM 34.0 °F 24.2 °F 24.1 °F 67% 29.80 in 10.0 mi WSW 15.0 mph - N/A   Clear
7:53 AM 39.0 °F 26.6 °F 21.0 °F 49% 29.75 in 10.0 mi WNW 33.4 mph 43.7 mph N/A   Clear
8:53 AM 44.1 °F 38.6 °F 21.9 °F 42% 29.79 in 10.0 mi ENE 10.4 mph 21.9 mph N/A   Clear
9:53 AM 45.0 °F 37.4 °F 23.0 °F 42% 29.82 in 10.0 mi SE 18.4 mph - N/A   Clear
10:53 AM 48.0 °F - 26.1 °F 42% 29.86 in 10.0 mi SE 13.8 mph - N/A   Clear
12:53 PM 50.0 °F - 25.0 °F 38% 29.85 in 10.0 mi Calm Calm - N/A   Clear
1:53 PM 53.1 °F - 21.9 °F 30% 29.84 in 10.0 mi NNE 6.9 mph - N/A   Clear
2:53 PM 55.0 °F - 21.0 °F 27% 29.84 in 10.0 mi Calm Calm - N/A   Clear
3:53 PM 55.9 °F - 21.0 °F 26% 29.85 in 10.0 mi NE 4.6 mph - N/A   Clear
4:18 PM 55.4 °F - 24.8 °F 31% 30.01 in 10.0 mi ESE 15.0 mph - N/A   Clear
4:53 PM 54.0 °F - 24.1 °F 31% 29.88 in 10.0 mi SE 11.5 mph 17.3 mph N/A   Clear
5:53 PM 51.1 °F - 24.1 °F 35% 29.91 in 10.0 mi SSE 5.8 mph - N/A   Clear
6:53 PM 45.0 °F 41.2 °F 27.0 °F 49% 29.97 in 10.0 mi North 6.9 mph - N/A   Clear
8:53 PM 39.9 °F 35.8 °F 28.0 °F 63% 30.00 in 10.0 mi North 5.8 mph - N/A   Clear
9:53 PM 39.9 °F 35.8 °F 28.0 °F 63% 30.01 in 10.0 mi NNW 5.8 mph - N/A   Clear
10:53 PM 37.0 °F 33.3 °F 28.9 °F 73% 30.02 in 10.0 mi NE 4.6 mph - N/A   Partly Cloudy